Date String (YYYY-MM-DD hh:mm:ss) UTC,Instrument flags,Ambient pressure (hPa),Sample flow (lpm),Bypass flow (lpm),Sample temperature (°C),Ambient temperature (°C),ASC tube jacket temperature (°C),LED temperature (°C),Box temperature (°C),Sample RH (%),Span deviation,Mass concentration (μg/m³),Mass concentration (μg/m³),Mass concentration (μg/m³)
DateTimeUTC,F1_M11,P_M11,Q1_M11,Q2_M11,T1_M11,T2_M11,T3_M11,T4_M11,T5_M11,U1_M11,ZSPAN_M11,X0_M11,X2_M11,X1_M11
2022-03-08 16:00:00,,0824.0,5.01,0.00,22.9,22.1,00.0,31.9,24.7,06.4,0000.0,0006.48,0003.47,0003.17
2022-03-08 16:01:00,,0824.0,4.99,0.00,22.9,22.1,00.0,31.9,24.7,06.5,0000.0,0006.38,0003.53,0003.23
2022-03-08 16:02:00,,0824.0,4.99,0.00,22.9,22.0,00.0,31.9,24.7,06.4,0000.0,0006.45,0003.58,0003.27
2022-03-08 16:03:00,,0824.0,5.01,0.00,22.9,22.0,00.0,31.9,24.6,06.3,0000.0,0006.59,0003.63,0003.31
2022-03-08 16:04:00,,0824.0,4.99,0.00,22.8,22.0,00.0,31.9,24.6,06.7,0000.0,0006.81,0003.67,0003.36
2022-03-08 16:05:00,,0824.0,5.00,0.00,22.8,22.0,00.0,31.9,24.5,06.9,0000.0,0007.41,0003.73,0003.44
2022-03-08 16:06:00,,0824.0,5.01,0.00,22.8,22.0,00.0,31.8,24.5,07.4,0000.0,0007.59,0003.82,0003.52
2022-03-08 16:07:00,,0824.0,4.99,0.00,22.8,22.0,00.0,31.8,24.5,07.3,0000.0,0007.63,0003.88,0003.58
2022-03-08 16:08:00,,0824.0,5.00,0.00,22.8,22.0,00.0,31.8,24.5,07.4,0000.0,0007.67,0003.93,0003.64
2022-03-08 16:09:00,,0824.0,5.01,0.00,22.8,21.9,00.0,31.8,24.5,07.1,0000.0,0007.74,0003.98,0003.68
2022-03-08 16:10:00,,0824.1,5.01,0.00,22.7,21.9,00.0,31.8,24.4,06.9,0000.0,0007.67,0003.99,0003.70
2022-03-08 16:11:00,,0824.0,4.99,0.00,22.7,21.9,00.0,31.8,24.4,06.7,0000.0,0007.14,0003.96,0003.70
2022-03-08 16:12:00,,0824.1,4.99,0.00,22.7,21.9,00.0,31.8,24.5,07.0,0000.0,0006.69,0003.95,0003.70
2022-03-08 16:13:00,,0824.0,5.01,0.00,22.7,21.9,00.0,31.8,24.5,07.0,0000.0,0006.69,0003.98,0003.72
2022-03-08 16:14:00,,0824.0,5.00,0.00,22.7,21.9,00.0,31.7,24.5,07.0,0000.0,0006.47,0003.97,0003.73
2022-03-08 16:15:00,,0824.0,5.00,0.00,22.7,21.9,00.0,31.7,24.5,06.7,0000.0,0006.23,0003.95,0003.72
2022-03-08 16:16:00,,0823.9,4.99,0.00,22.7,21.9,00.0,31.7,24.5,06.8,0000.0,0005.47,0003.91,0003.68
2022-03-08 16:17:00,,0823.9,4.99,0.00,22.7,21.9,00.0,31.7,24.4,06.9,0000.0,0005.30,0003.87,0003.65
2022-03-08 16:18:00,,0824.0,5.00,0.00,22.7,21.9,00.0,31.7,24.5,06.4,0000.0,0005.29,0003.86,0003.62
2022-03-08 16:19:00,,0823.9,5.00,0.00,22.7,21.9,00.0,31.7,24.5,06.3,0000.0,0005.53,0003.84,0003.60
2022-03-08 16:20:00,,0823.9,5.00,0.00,22.7,21.9,00.0,31.7,24.5,06.2,0000.0,0005.97,0003.81,0003.57
2022-03-08 16:21:00,,0823.9,4.99,0.00,22.7,21.9,00.0,31.7,24.4,05.8,0000.0,0005.87,0003.76,0003.54
2022-03-08 16:22:00,,0823.9,5.00,0.00,22.7,21.9,00.0,31.7,24.4,05.7,0000.0,0005.88,0003.74,0003.51
2022-03-08 16:23:00,,0823.9,5.00,0.00,22.6,21.8,00.0,31.7,24.4,05.9,0000.0,0005.88,0003.73,0003.48
2022-03-08 16:24:00,,0823.9,5.00,0.00,22.6,21.9,00.0,31.7,24.4,06.2,0000.0,0005.78,0003.69,0003.44
2022-03-08 16:25:00,,0823.9,5.01,0.00,22.6,21.8,00.0,31.7,24.4,06.1,0000.0,0005.80,0003.66,0003.40
2022-03-08 16:26:00,,0823.9,5.00,0.00,22.6,21.8,00.0,31.6,24.4,06.1,0000.0,0005.84,0003.63,0003.37
2022-03-08 16:27:00,,0823.9,4.99,0.00,22.6,21.8,00.0,31.6,24.3,06.4,0000.0,0005.85,0003.61,0003.35
2022-03-08 16:28:00,,0823.9,4.99,0.00,22.6,21.8,00.0,31.6,24.4,06.5,0000.0,0005.92,0003.60,0003.34
2022-03-08 16:29:00,,0823.9,5.00,0.00,22.6,21.8,00.0,31.6,24.4,06.9,0000.0,0006.17,0003.59,0003.33
2022-03-08 16:30:00,,0823.9,5.00,0.00,22.6,21.8,00.0,31.6,24.3,06.8,0000.0,0006.59,0003.61,0003.33
2022-03-08 16:31:00,,0823.9,5.00,0.00,22.6,21.8,00.0,31.6,24.3,06.4,0000.0,0005.98,0003.63,0003.33
2022-03-08 16:32:00,,0823.9,5.01,0.00,22.6,21.8,00.0,31.6,24.4,06.4,0000.0,0006.00,0003.64,0003.35
2022-03-08 16:33:00,,0823.9,4.99,0.00,22.6,21.8,00.0,31.6,24.4,06.6,0000.0,0005.90,0003.65,0003.38
2022-03-08 16:34:00,,0823.9,5.00,0.00,22.6,21.8,00.0,31.6,24.3,06.4,0000.0,0005.79,0003.63,0003.38
2022-03-08 16:35:00,,0823.9,5.00,0.00,22.6,21.8,00.0,31.6,24.3,06.4,0000.0,0005.86,0003.65,0003.41
2022-03-08 16:36:00,,0823.9,5.00,0.00,22.6,21.8,00.0,31.6,24.4,06.1,0000.0,0005.90,0003.67,0003.43
2022-03-08 16:37:00,,0823.8,4.99,0.00,22.6,21.8,00.0,31.6,24.3,06.1,0000.0,0005.80,0003.67,0003.44
2022-03-08 16:38:00,,0823.8,5.01,0.00,22.6,21.8,00.0,31.6,24.3,06.3,0000.0,0006.21,0003.69,0003.45
2022-03-08 16:39:00,,0823.8,5.01,0.00,22.6,21.8,00.0,31.6,24.3,06.4,0000.0,0006.99,0003.69,0003.47
2022-03-08 16:40:00,,0823.8,4.99,0.00,22.6,21.8,00.0,31.6,24.4,06.6,0000.0,0006.83,0003.70,0003.49
2022-03-08 16:41:00,,0823.8,5.00,0.00,22.6,21.8,00.0,31.5,24.4,07.5,0000.0,0006.82,0003.75,0003.51
2022-03-08 16:42:00,,0823.8,4.98,0.00,22.6,21.8,00.0,31.5,24.3,07.4,0000.0,0007.03,0003.81,0003.56
2022-03-08 16:43:00,,0823.9,5.00,0.00,22.6,21.8,00.0,31.5,24.3,07.3,0000.0,0007.32,0003.89,0003.61
2022-03-08 16:44:00,,0823.9,5.01,0.00,22.6,21.8,00.0,31.6,24.3,06.7,0000.0,0007.59,0003.93,0003.64
2022-03-08 16:45:00,,0823.8,5.01,0.00,22.5,21.8,00.0,31.5,24.3,06.8,0000.0,0007.71,0004.00,0003.68
2022-03-08 16:46:00,,0823.8,4.99,0.00,22.5,21.7,00.0,31.5,24.3,06.9,0000.0,0007.68,0004.01,0003.72
2022-03-08 16:47:00,,0823.8,5.00,0.00,22.5,21.7,00.0,31.5,24.2,06.9,0000.0,0007.77,0004.07,0003.76
2022-03-08 16:48:00,,0823.8,5.00,0.00,22.5,21.7,00.0,31.5,24.2,06.9,0000.0,0007.88,0004.15,0003.81
2022-03-08 16:49:00,,0823.8,5.00,0.00,22.5,21.8,00.0,31.5,24.2,07.1,0000.0,0008.09,0004.21,0003.86
2022-03-08 16:50:00,,0823.8,5.00,0.00,22.5,21.8,00.0,31.5,24.2,06.8,0000.0,0007.73,0004.26,0003.90
2022-03-08 16:51:00,,0823.8,5.00,0.00,22.5,21.8,00.0,31.5,24.2,06.5,0000.0,0007.72,0004.27,0003.92
2022-03-08 16:52:00,,0823.8,5.00,0.00,22.5,21.8,00.0,31.5,24.2,06.6,0000.0,0007.49,0004.23,0003.93
2022-03-08 16:53:00,,0823.8,5.00,0.00,22.5,21.8,00.0,31.5,24.2,06.7,0000.0,0007.42,0004.23,0003.93
2022-03-08 16:54:00,,0823.7,5.00,0.00,22.5,21.8,00.0,31.5,24.2,06.9,0000.0,0007.36,0004.20,0003.91
2022-03-08 16:55:00,,0823.8,5.00,0.00,22.5,21.8,00.0,31.5,24.2,06.7,0000.0,0007.18,0004.23,0003.93
2022-03-08 16:56:00,,0823.7,5.00,0.00,22.4,21.7,00.0,31.5,24.2,06.3,0000.0,0007.26,0004.25,0003.94
2022-03-08 16:57:00,,0823.8,5.02,0.00,22.4,21.7,00.0,31.5,24.2,06.3,0000.0,0007.65,0004.30,0003.95
2022-03-08 16:58:00,,0823.8,5.00,0.00,22.4,21.6,00.0,31.4,24.1,06.3,0000.0,0007.75,0004.28,0003.96
2022-03-08 16:59:00,,0823.7,4.99,0.00,22.4,21.6,00.0,31.4,24.1,06.4,0000.0,0007.76,0004.26,0003.95
